Flight Track Log - Related Links

Times and Time Zones

All times are in EDT time to prevent confusion due to time zone crossing. See the N273SK flight status page for this flight to view local times or setup timezone preferences in your user account.

Time Position Orientation Groundspeed Altitude Reporting Facility
EDT Latitude Longitude Course Direction KTS MPH feet Rate Location/Type
Fri 04:55:04 PM 45.4617 -73.7894 189° South 411 473 1,200  Level Boston Center
Fri 04:55:22 PM 45.4500 -73.8000 212° Southwest 170 196 1,900 2,462 Climbing Montreal Center
Fri 04:56:22 PM 45.4500 -73.8667 270° West 200 230 4,400 2,350 Climbing Montreal Center
Fri 04:57:22 PM 45.3833 -73.9167 208° Southwest 240 276 6,600 2,300 Climbing Montreal Center
Fri 04:58:00 PM 45.1111 -73.9921 207° Southwest  Level FlightAware Approximate
Fri 04:58:22 PM 45.3167 -73.9500 199° South 260 299 9,000  Level Montreal Center
Fri 04:59:00 PM 45.0215 -74.0561 207° Southwest  Level FlightAware Approximate
Fri 04:59:22 PM 45.2500 -73.9667 190° South 270 311 10,900  Level Montreal Center
Fri 05:00:00 PM 44.9408 -74.0853 189° South  Level FlightAware Approximate
Fri 05:00:22 PM 45.1500 -74.0000 193° South 320 368 11,900  Level Montreal Center
Fri 05:01:22 PM 45.0667 -74.0167 188° South 340 391 13,200 1,300 Climbing Montreal Center
Fri 05:02:22 PM 44.9667 -74.0000 173° South 360 414 14,500 1,250 Climbing Montreal Center
Fri 05:03:22 PM 44.8667 -74.0000 180° South 370 426 15,700 1,176 Climbing Montreal Center
Fri 05:04:04 PM 44.8111 -74.0056 184° South 385 443 16,500 1,000 Climbing Boston Center
Fri 05:05:04 PM 44.7031 -73.9939 176° South 385 443 17,400 800 Climbing Boston Center
Fri 05:06:04 PM 44.5928 -73.9822 176° South 395 455 18,100 550 Climbing Boston Center
Fri 05:07:04 PM 44.4783 -73.9706 176° South 407 468 18,500 650 Climbing Boston Center
Fri 05:08:04 PM 44.3514 -73.9614 177° South 407 468 19,400 900 Climbing Boston Center
Fri 05:09:04 PM 44.2347 -73.9497 176° South 412 474 20,300 864 Climbing Boston Center
Fri 05:10:16 PM 44.1161 -73.9350 175° South 422 486 21,300 909 Climbing Boston Center
Fri 05:11:16 PM 43.9725 -73.9228 176° South 428 493 22,300 900 Climbing Boston Center
Fri 05:12:16 PM 43.8497 -73.9111 176° South 435 501 23,100 864 Climbing Boston Center
Fri 05:13:28 PM 43.7042 -73.8961 176° South 441 507 24,200 818 Climbing Boston Center
Fri 05:14:28 PM 43.5958 -73.8878 177° South 441 507 24,900 600 Climbing Boston Center
Fri 05:15:28 PM 43.4731 -73.8733 175° South 441 507 25,400 550 Climbing Boston Center
Fri 05:16:28 PM 43.3397 -73.8589 175° South 441 507 26,000 300 Climbing Boston Center
Fri 05:17:28 PM 43.2150 -73.8503 177° South 441 507 26,000 -50 Level Boston Center
Fri 05:18:28 PM 43.0858 -73.8389 176° South 447 514 25,900 -350 Descending Boston Center
Fri 05:19:28 PM 42.9567 -73.8272 176° South 452 520 25,300 -800 Descending Boston Center
Fri 05:20:28 PM 42.8297 -73.8131 175° South 464 534 24,300 -950 Descending Boston Center
Fri 05:21:28 PM 42.7050 -73.7992 175° South 464 534 23,400 -950 Descending Boston Center
Fri 05:22:28 PM 42.5803 -73.7708 171° South 464 534 22,400 -700 Descending Boston Center
Fri 05:23:28 PM 42.4575 -73.7458 171° South 459 528 22,000 -200 Descending Boston Center
Fri 05:24:28 PM 42.3328 -73.7208 172° South 453 521 22,000 -1,050 Level Boston Center
Fri 05:25:28 PM 42.2142 -73.6903 169° South 447 514 19,900 -2,000 Descending Boston Center
Fri 05:26:28 PM 42.0978 -73.6711 173° South 441 507 18,000 -950 Descending Boston Center
Fri 05:27:28 PM 41.9850 -73.6858 186° South 418 481 18,000 -100 Level Boston Center
Fri 05:28:28 PM 41.8847 -73.7033 187° South 412 474 17,800 -800 Descending Boston Center
Fri 05:29:28 PM 41.7617 -73.7258 188° South 406 467 16,400 -1,450 Descending Boston Center
Fri 05:30:28 PM 41.6656 -73.7406 187° South 406 467 14,900 -1,750 Descending Boston Center
Fri 05:31:28 PM 41.5550 -73.7606 188° South 389 448 12,900 -1,826 Descending Boston Center
Fri 05:33:09 PM 41.4000 -73.7833 186° South 296 341 10,000 -1,416 Descending New York TRACON
Fri 05:34:09 PM 41.3333 -73.7833 180° South 287 330 9,100 -500 Descending New York TRACON
Fri 05:35:09 PM 41.2667 -73.7333 151° Southeast 292 336 9,000 -50 Descending New York TRACON
Fri 05:36:09 PM 41.2000 -73.6667 143° Southeast 293 337 9,000 -421 Level New York TRACON
Fri 05:37:03 PM 41.1333 -73.6167 151° Southeast 286 329 8,200 -1,100 Descending New York TRACON
Fri 05:38:09 PM 41.0500 -73.6000 171° South 274 315 6,800 -1,350 Descending New York TRACON
Fri 05:39:03 PM 41.0167 -73.5500 131° Southeast 260 299 5,500 -1,421 Descending New York TRACON
Fri 05:40:03 PM 40.9500 -73.5333 169° South 268 308 4,100 -750 Descending New York TRACON
Fri 05:41:03 PM 40.9167 -73.6167 242° Southwest 252 290 4,000 -50 Descending New York TRACON
Fri 05:42:03 PM 40.8500 -73.6667 210° Southwest 257 296 4,000  Level New York TRACON
Fri 05:43:03 PM 40.8167 -73.7333 237° Southwest 253 291 4,000  Level New York TRACON
Fri 05:44:03 PM 40.7833 -73.8333 246° West 249 287 4,000  Level New York TRACON
Fri 05:45:03 PM 40.7833 -73.9000 270° West 193 222 4,000 -400 Level New York TRACON
Fri 05:46:03 PM 40.7667 -73.9667 252° West 189 217 3,200 -500 Descending New York TRACON
Fri 05:47:03 PM 40.7333 -74.0167 229° Southwest 208 239 3,000 -250 Descending New York TRACON
Fri 05:48:03 PM 40.7167 -73.9500 108° East 193 222 2,700 -300 Descending New York TRACON

Login

Don't have an account? Register now (free) for customized features, flight alerts, and more!